Portada
METAR-TAF:

METAR-TAF

Aeroports :

NWS Office

Pohnpei, Micronèsia

latitud: 06-58N, longitud: 158-13E, altitud: 39 m

Observació

L'informe es va fer fa 35 minuts, a les 14:58 UTC
Vent calma
Temperatura 25°C
Humitat 100%
Pressió 1013 hPa
Visibilitat: 24.1 km
Cel ennuvolat a una alçada de 1800 ft
Cel ennuvolat a una alçada de 13000 ft
Cel cobert a una alçada de 30000 ft

METAR: PTTP 251458Z 00000KT 15SM BKN018 BKN130 OVC300 25/25 A2990 RMK SLP125 8/171 T02540248 57017

Hora: 02:33 (15:33 UTC)


TAF: manca

Observacions i pronòstics meteorològics de més de 4000 aeroports (METAR i TAF).

Les estacions disponibles són els punts grocs i vermells al mapa.

Posi el ratolí al punt desitjat per veure el nom de l'estació.

Feu clic per veure les observacions i els pronòstics meteorològics.

Per canviar el mapa: feu clic els botons verds amb una creu de color negre per apropar; al botó verd amb un guió per allunyar la imatge; o en les fletxes verdes per a mapes adjacents.


METAR-TAF: